Zurück zum Katalog

GNOMES-4

AktivWetterSSO
NORAD 58462·PAYLOAD·🇺🇸 United States

Gestartet Dec 1, 2023 von Vandenberg Space Force Base

Loading…

Nächste Überflüge (nächste 24 Stunden)

TLE

AktuellSource: Space-Track

Epoche: Sep 14, 2026, 14:41 UTC

1 58462U 23185A   26257.61227518  .00002408  00000-0  19158-3 0  9999
2 58462  97.4735 311.4658 0011411  28.6783 331.5067 15.01269977152709

Verfolge GNOMES-4 in Echtzeit mit AllMySat

Download on the App Store